RH
100 99 97 94 92 89 87 86 85 85 85 83 81 80 80 78 75 72 68 65 63 61 59 58 57 56 56 58 62 66 70 72 76 80 85 93 99 100 100 100 100 100 100 100 99 99 99 99 100 100 100 100 98 96 95 93 91 85 75 62 50 39 28 22 22 21 23 27 29 30 29 28 32 43 55 60 69 84 90 93 98 99 98 93 88
99 99 100 99 97 95 92 91 91 91 92 91 90 90 87 85 83 81 79 77 75 73 70 68 66 63 60 59 59 61 64 68 71 74 77 84 91 98 101 100 100 100 100 100 100 100 100 100 100 100 100 100 100 100 99 98 96 91 83 71 56 43 32 26 25 24 26 30 30 30 31 35 45 55 61 65 75 87 90 92 97 100 100 99 97
96 95 98 100 100 99 97 96 96 96 97 97 98 98 97 96 94 92 91 89 86 85 82 80 77 74 72 70 68 66 66 68 69 71 75 79 85 92 98 100 100 100 100 100 100 100 100 100 100 100 100 100 100 100 100 100 99 94 89 79 63 50 39 31 28 28 30 31 31 34 39 47 56 61 64 70 80 88 90 92 98 100 100 100 100
95 93 95 97 99 100 100 100 100 100 100 100 100 100 99 99 99 99 99 98 97 96 94 92 89 86 84 82 81 79 77 75 72 70 70 73 78 84 92 98 100 100 100 100 100 100 100 100 100 100 100 100 100 100 100 100 100 97 92 84 70 56 43 34 31 31 32 33 37 42 49 57 62 65 68 75 84 89 90 93 99 101 100 100 101
88 88 89 91 92 93 94 96 96 96 96 96 96 96 97 98 98 99 98 98 98 99 98 98 96 96 95 94 93 91 89 86 82 78 75 73 74 76 82 92 99 101 100 100 100 100 100 100 100 100 100 100 100 100 100 100 100 100 94 86 75 61 47 38 35 35 36 39 45 50 57 64 66 68 73 79 86 89 90 93 98 102 101 101 102
65 65 67 69 71 72 75 77 78 78 78 78 78 79 81 84 87 89 91 92 93 94 95 95 94 95 97 99 99 99 99 97 95 93 90 86 83 79 78 83 92 98 100 100 100 100 100 100 100 100 100 100 100 100 100 100 100 101 97 88 78 65 54 45 39 39 42 46 52 57 63 68 69 71 77 82 87 90 91 92 97 102 101 100 102
51 49 48 48 48 49 51 53 55 57 57 58 59 60 60 62 63 66 69 73 79 85 90 93 92 92 93 94 95 96 97 98 99 100 99 99 97 94 91 88 88 93 97 100 100 100 100 100 100 100 100 100 100 100 100 100 100 100 98 93 85 73 63 55 48 47 50 54 59 64 68 71 73 76 81 85 89 91 91 93 97 101 101 101 102
59 59 57 55 52 49 48 47 45 44 43 43 45 46 47 47 47 47 48 51 56 64 73 81 86 89 90 91 90 88 88 88 90 91 91 93 95 97 99 98 96 96 97 98 99 99 100 100 100 100 100 100 100 100 100 100 100 100 100 97 92 83 72 65 59 57 60 63 67 71 73 75 78 82 85 87 90 92 93 95 97 99 100 101 101
77 75 73 72 68 65 63 60 57 54 50 47 45 43 42 42 42 42 41 41 41 44 51 59 66 73 80 88 90 88 86 84 84 83 81 80 81 82 86 90 93 97 98 99 100 99 99 100 100 100 100 100 100 100 100 100 100 100 100 99 96 90 81 75 70 68 70 73 75 76 78 81 84 86 88 90 92 94 96 97 96 97 99 99 101
86 82 79 76 73 70 69 68 67 66 64 62 59 56 53 50 49 47 46 44 41 39 40 42 46 53 62 72 80 83 85 86 86 84 80 77 75 74 76 78 81 86 90 94 98 100 100 100 100 100 100 100 100 100 100 100 100 100 100 100 99 95 90 85 81 79 80 82 83 82 84 86 89 91 92 93 95 96 99 100 98 98 97 96 98
81 79 76 74 71 69 68 66 65 65 65 66 66 65 64 62 60 58 56 53 50 46 43 41 41 44 48 53 59 66 76 83 85 82 79 78 76 75 75 75 77 79 81 85 92 98 101 100 100 100 100 100 100 100 100 100 100 100 100 100 100 99 97 95 91 88 88 89 89 88 89 91 94 95 94 95 98 99 100 102 100 98 96 95 96
71 70 69 68 67 66 65 64 63 62 62 63 63 64 65 64 64 64 62 60 59 56 55 53 50 49 47 47 50 54 62 71 74 73 75 76 76 76 75 76 79 82 85 89 93 98 100 100 100 100 100 100 100 100 100 100 100 100 100 100 100 100 100 99 97 95 94 94 94 94 95 97 98 98 96 97 100 100 101 102 100 96 97 98 96
63 63 63 63 62 62 62 61 61 60 60 60 60 60 61 62 63 64 64 64 64 63 64 63 62 60 58 57 56 56 60 65 65 67 73 76 74 74 75 77 81 85 91 96 98 99 100 100 100 100 100 100 100 100 100 100 100 100 100 100 100 100 101 100 100 100 99 98 97 98 100 100 100 100 98 99 101 100 101 101 98 96 98 98 96
62 62 62 61 60 60 60 60 60 60 59 58 58 58 59 60 60 61 62 64 66 67 68 68 69 69 68 66 65 64 67 70 69 71 76 77 72 70 73 79 83 86 94 100 100 100 101 100 100 100 100 100 100 100 100 100 100 100 100 100 100 100 101 100 100 101 101 100 101 102 102 102 101 101 100 101 101 100 101 100 97 97 97 96 94
61 62 63 63 61 60 60 60 60 60 60 60 59 59 59 60 60 59 60 62 63 65 66 68 70 71 72 72 72 74 79 80 78 79 83 82 76 69 71 80 86 88 94 99 99 98 100 100 100 100 100 100 100 100 100 100 100 100 100 100 100 100 100 101 101 101 101 101 102 102 102 102 101 100 101 101 101 101 101 99 97 96 94 94 89
41 46 51 56 59 59 59 59 59 59 59 59 60 60 60 60 61 60 59 60 60 61 62 63 66 68 70 73 75 79 85 86 84 85 88 88 82 74 73 82 89 91 93 95 96 98 99 100 100 100 100 100 100 100 100 100 100 100 100 100 100 100 100 101 101 101 101 102 102 102 101 101 101 100 101 101 100 101 101 99 98 96 96 93 79
13 17 24 32 42 49 53 55 55 55 55 55 55 56 56 57 58 57 56 56 56 57 58 59 62 64 66 69 72 76 82 86 87 89 92 91 86 80 78 83 90 93 94 96 98 99 99 100 100 100 100 100 100 100 100 100 100 100 100 100 100 100 100 100 100 100 101 102 101 101 101 101 100 101 101 100 99 99 101 99 96 95 95 86 66
2 3 6 10 18 28 36 43 48 50 51 51 50 50 50 50 51 52 52 52 52 53 54 55 58 61 63 66 68 70 74 78 81 85 91 91 87 84 83 84 90 95 97 98 100 100 100 99 98 99 100 100 100 100 100 100 100 100 100 100 100 100 100 100 100 101 101 101 101 101 101 100 101 101 101 100 99 99 99 96 93 93 89 74 55
7 5 3 3 4 8 15 23 32 39 44 46 46 45 44 43 43 43 46 48 49 50 51 52 54 57 60 63 65 67 70 72 73 75 80 84 84 84 83 85 91 97 98 99 100 100 100 99 97 99 100 100 100 100 100 100 100 100 100 100 100 100 100 100 100 101 101 101 101 100 100 100 101 101 100 100 101 101 97 94 95 95 83 64 48
32 27 22 17 12 9 7 8 12 17 22 28 31 33 34 33 32 33 35 39 43 47 49 51 52 53 56 58 61 65 69 73 73 72 73 74 76 78 80 84 92 97 99 100 100 98 99 99 98 99 100 100 100 100 100 100 100 100 100 100 100 100 100 100 101 101 101 101 101 100 100 100 100 100 101 101 100 98 94 94 99 94 75 56 43
54 53 50 46 41 36 30 25 20 17 15 15 15 17 19 20 22 24 27 31 37 42 45 49 51 53 55 57 60 65 71 76 78 77 75 72 70 71 74 82 93 99 99 100 99 98 99 100 99 100 100 100 100 100 100 100 100 100 100 100 100 100 100 101 100 100 101 101 101 100 100 100 100 100 101 100 97 95 94 97 99 87 65 49 35
57 58 60 61 61 59 57 54 50 46 41 37 33 30 29 28 28 29 31 34 38 42 46 48 51 54 57 59 62 68 74 80 85 86 84 78 72 69 72 82 94 99 99 100 100 99 100 100 100 100 100 100 100 100 100 100 100 100 100 99 100 100 100 100 100 100 101 100 100 101 100 100 101 101 101 99 95 94 97 99 93 77 58 41 26
58 59 60 63 65 66 67 67 66 66 64 62 60 58 56 55 52 51 51 51 52 54 55 56 57 59 62 63 66 71 77 84 90 93 93 89 83 77 75 82 95 100 100 100 101 100 100 101 100 100 100 100 100 100 100 100 100 100 100 100 100 100 100 100 100 100 100 99 100 101 100 100 101 101 100 98 96 98 100 96 85 67 47 30 21
61 61 62 64 66 68 70 71 72 73 74 75 75 75 76 75 74 74 73 72 71 71 72 72 71 71 72 71 71 74 80 84 87 90 95 97 95 91 85 85 95 101 100 100 101 100 100 100 100 100 100 100 100 100 100 100 100 100 100 100 100 100 99 98 98 98 99 100 101 101 101 101 101 99 99 98 98 100 99 89 74 52 32 21 25
60 62 64 66 69 71 73 76 79 81 82 83 84 86 88 88 89 92 92 91 91 90 90 90 89 87 86 84 83 84 87 86 84 87 95 100 100 99 94 91 97 101 100 100 101 100 100 100 100 100 100 100 100 100 100 100 100 100 101 100 99 98 97 97 98 99 100 101 102 102 100 100 100 99 99 99 99 99 94 77 54 33 22 25 33
64 67 71 74 76 78 79 81 84 87 89 91 92 94 95 94 94 97 98 99 99 99 99 99 99 98 98 97 96 96 95 93 91 93 98 101 100 101 100 98 99 101 100 100 100 100 100 100 99 100 100 100 100 100 101 101 100 99 99 98 97 98 99 99 99 99 100 101 102 101 100 100 101 100 99 98 98 94 79 55 32 22 25 31 30
69 71 75 79 79 80 82 84 88 92 95 97 97 97 96 95 95 96 97 98 99 100 100 100 100 100 100 100 100 100 99 99 98 99 100 101 100 100 101 100 100 100 100 100 100 100 100 100 100 100 100 100 100 100 99 97 97 97 97 97 99 100 100 100 99 99 101 102 101 100 101 101 101 101 98 96 90 74 51 30 22 26 31 27 20
70 73 78 81 80 82 86 90 95 99 100 99 99 98 98 98 99 99 100 99 99 100 100 100 100 100 100 100 100 100 100 100 100 100 100 100 100 100 100 100 100 100 100 100 100 100 100 100 100 100 100 100 100 98 96 96 97 98 100 101 101 100 100 100 99 100 101 101 100 101 101 101 100 98 90 79 62 42 27 23 27 30 26 18 14
71 78 81 82 82 84 89 95 99 99 96 97 99 100 100 100 100 100 100 100 99 99 100 100 100 100 100 100 100 100 100 100 100 100 100 100 100 100 100 100 100 100 100 101 100 100 100 100 100 100 100 100 99 97 98 100 100 100 101 100 99 99 99 99 100 101 102 101 101 101 101 99 93 81 64 47 32 24 25 30 30 24 17 14 17
69 80 81 81 82 85 89 94 95 94 93 96 99 100 100 100 100 100 100 100 100 99 99 100 100 100 100 100 100 100 100 100 100 100 100 100 100 100 100 100 100 100 100 100 100 100 100 100 100 101 100 99 98 99 101 101 100 100 99 98 97 97 98 100 101 101 100 100 102 102 96 84 68 50 35 25 22 26 32 32 24 16 14 17 21
66 78 80 81 83 85 86 85 85 90 96 99 100 100 100 100 100 100 100 100 100 100 100 100 100 100 100 100 100 100 100 100 100 100 100 100 100 100 100 100 100 101 100 100 100 100 100 100 100 100 100 99 99 101 100 99 98 97 97 96 96 97 99 101 101 100 100 101 99 88 70 50 35 25 21 23 29 33 31 23 16 15 18 21 23
62 76 80 83 86 86 85 82 82 88 94 96 97 99 100 99 100 100 99 99 98 99 101 100 100 100 100 100 100 100 100 100 101 100 100 100 100 100 100 100 100 101 100 100 100 100 100 100 100 100 101 100 99 98 97 96 96 96 95 96 97 99 101 101 100 100 98 90 73 53 34 23 19 20 25 31 34 29 21 15 15 19 21 24 25
59 78 82 85 88 88 87 87 87 88 91 94 96 99 99 98 98 99 99 98 98 98 100 101 100 100 100 100 100 100 100 100 100 100 100 100 100 100 100 100 100 100 100 100 100 100 100 100 100 100 99 98 95 94 95 95 96 95 95 97 98 99 98 97 94 88 74 54 35 24 18 18 22 28 33 33 26 18 15 16 19 22 23 25 28
54 80 85 86 91 92 90 91 90 88 89 93 96 99 99 96 97 99 100 100 99 98 98 99 99 99 100 100 100 100 101 100 100 101 100 100 100 100 100 100 100 100 100 100 99 99 100 101 100 98 96 95 94 95 96 96 95 94 96 97 96 91 86 79 69 54 36 23 17 17 18 24 31 34 31 24 16 14 17 19 21 24 26 27 29
42 74 86 88 93 96 94 93 91 88 87 91 96 98 97 96 98 100 100 99 99 97 96 97 99 99 100 101 100 100 100 100 100 100 100 100 101 100 100 100 101 100 99 99 99 99 100 99 97 95 93 93 95 96 96 95 95 96 95 91 82 72 62 50 35 22 16 15 16 20 26 33 34 28 20 15 15 17 19 21 24 27 28 28 30
25 60 84 90 93 98 98 96 94 90 86 88 94 96 97 99 100 100 100 100 99 99 98 98 99 99 99 100 100 100 100 100 100 100 100 100 100 100 100 101 99 96 94 95 98 100 99 95 93 91 90 92 94 94 94 95 96 93 84 71 57 45 34 23 16 13 15 17 21 28 35 34 26 18 14 15 18 19 21 24 27 28 29 29 31
13 45 77 89 91 98 100 96 95 92 86 87 95 99 99 100 96 92 93 97 97 98 98 98 99 100 100 100 100 100 100 100 100 100 100 100 100 100 100 99 95 91 89 89 92 94 92 90 89 88 89 91 93 94 96 96 90 78 61 45 32 21 14 12 13 14 17 22 30 37 34 24 16 14 15 17 19 21 23 27 28 29 30 30 31
8 34 69 87 91 97 101 98 94 91 85 87 97 101 100 98 94 87 86 88 89 91 94 94 94 96 98 99 100 100 100 100 100 100 100 100 100 99 98 97 93 87 83 82 82 82 81 82 85 87 90 93 94 95 96 89 73 53 35 22 14 11 11 13 15 16 22 33 39 35 25 16 14 15 17 18 20 23 26 28 29 29 30 30 31
6 22 57 83 91 94 99 100 95 89 84 85 94 100 100 99 96 90 87 87 88 89 92 96 98 97 97 99 100 99 100 100 99 100 100 100 99 98 97 95 90 82 77 76 76 77 79 83 88 91 94 95 96 95 88 71 49 28 16 10 9 11 13 14 16 23 34 40 36 25 17 14 15 16 17 19 22 25 28 30 30 30 30 31 32
5 10 37 70 88 92 96 100 98 91 85 83 89 97 101 101 98 94 91 90 91 90 90 94 100 99 95 94 95 97 98 98 98 100 100 99 98 98 96 90 83 77 76 77 79 83 88 91 94 96 96 96 95 86 68 44 24 12 8 9 11 13 13 15 23 35 41 38 27 18 14 14 16 17 18 21 24 27 29 30 30 30 31 32 32
7 5 18 47 76 90 94 97 99 97 91 87 86 89 95 99 101 97 90 89 92 92 86 87 94 95 91 89 90 92 95 96 97 99 100 99 97 95 90 83 78 77 79 83 86 90 93 94 95 95 93 89 80 62 38 19 10 7 9 12 13 12 14 22 34 42 40 30 20 15 14 15 16 17 20 23 26 29 30 30 31 31 31 32 33
8 7 6 21 52 80 92 94 97 99 99 95 89 85 86 88 92 94 94 93 93 89 82 84 92 95 94 93 93 93 95 98 99 99 100 98 95 90 84 80 78 79 82 86 89 92 92 91 88 84 77 65 50 31 14 7 7 9 11 13 12 13 21 33 42 42 33 23 16 14 14 16 17 18 21 25 28 30 31 31 32 32 32 33 34
8 9 5 7 27 59 84 92 93 95 99 100 97 94 92 89 90 95 98 95 90 85 85 90 94 94 95 99 99 97 97 99 100 100 99 96 92 86 80 79 80 84 87 89 89 87 85 80 74 65 51 36 22 11 6 7 9 11 12 11 12 19 31 41 44 38 26 18 15 14 15 16 18 19 23 26 29 31 32 32 33 34 34 34 35
8 8 8 5 10 32 64 85 92 92 94 97 99 99 99 98 97 95 92 90 89 89 91 94 95 92 94 98 100 99 98 98 99 99 98 94 88 82 78 81 85 87 87 84 78 73 67 60 52 41 28 16 8 6 7 9 11 11 11 11 17 29 40 44 40 31 21 15 15 15 15 17 19 21 24 27 30 32 33 34 35 36 36 36 37
10 9 9 8 5 12 35 66 87 93 91 92 96 98 98 100 102 98 94 94 96 93 89 90 92 94 96 98 100 100 98 96 94 95 94 91 85 79 80 84 86 83 77 69 62 55 49 40 30 20 12 6 6 7 9 11 11 10 10 15 26 37 44 42 34 25 18 15 15 15 16 17 19 21 24 28 30 33 34 35 36 38 39 39 39
13 11 10 10 8 5 13 36 66 86 91 90 91 92 94 97 100 100 100 100 97 91 88 91 95 96 97 99 100 98 95 92 90 91 92 88 83 81 84 86 83 73 63 55 48 42 33 23 14 8 5 5 7 9 10 11 11 10 13 22 34 42 43 38 29 21 16 15 16 16 16 18 20 22 25 28 30 33 35 36 38 39 40 41 41
15 14 12 11 11 9 6 12 33 62 84 92 90 88 90 93 95 98 101 101 95 89 89 94 98 97 98 100 98 95 91 90 90 91 90 87 85 86 87 84 75 63 53 46 39 29 19 10 6 5 5 6 8 10 11 10 10 12 19 30 38 42 40 33 24 18 16 16 16 16 17 19 20 22 25 27 30 33 35 36 38 39 40 41 42
16 16 15 13 12 12 10 7 11 29 58 81 90 89 87 88 91 94 98 101 98 93 92 95 99 99 99 99 96 91 89 89 91 92 90 87 88 90 87 77 65 55 47 39 29 17 8 5 4 5 6 8 10 10 10 9 10 16 26 35 40 41 37 28 19 16 16 17 17 17 18 19 21 23 25 27 29 31 33 35 36 38 39 40 42
19 18 17 16 14 13 12 11 8 10 27 54 77 87 87 86 88 91 95 99 100 99 98 99 100 100 99 98 95 91 90 91 92 93 92 90 90 91 84 69 55 48 43 34 20 8 4 4 5 5 7 10 11 10 9 10 13 21 30 37 40 38 32 23 16 15 17 17 17 18 18 19 21 23 24 26 28 30 31 33 34 35 36 38 40
21 20 19 18 17 15 13 13 11 8 11 26 53 76 86 86 85 88 93 97 99 100 100 100 100 100 100 98 95 93 92 92 92 92 92 91 90 89 80 65 51 45 40 28 13 4 4 5 5 7 10 10 10 9 9 11 17 26 33 37 38 36 28 19 15 15 17 18 18 19 19 19 21 23 24 25 27 28 29 30 31 33 34 36 38
22 22 21 20 19 18 16 14 13 11 8 11 29 56 78 86 85 86 90 94 97 99 101 100 99 100 100 99 97 95 95 94 93 91 91 91 89 85 75 61 48 43 37 23 8 3 4 5 5 9 11 10 9 9 10 13 20 29 35 37 37 33 24 16 14 15 17 18 19 19 19 20 21 23 24 25 26 27 29 30 31 32 33 34 36
Wind_Speed
14 14 15 16 17 19 21 24 26 28 28 29 29 29 30 31 32 33 33 33 32 33 33 33 34 36 39 41 44 45 46 47 49 52 55 59 62 63 63 63 63 63 61 60 59 57 57 56 55 55 54 55 55 55 54 54 53 51 50 50 49 49 49 49 49 48 48 49 48 48 48 47 46 46 46 45 47 48 47 45 44 43 43 44 44
16 16 16 16 17 17 18 19 20 22 23 23 24 24 26 27 28 30 30 31 32 33 33 33 33 34 34 35 37 39 42 44 45 47 49 52 55 60 63 64 64 63 63 62 61 60 59 58 56 55 55 56 56 56 56 55 55 53 52 51 50 50 50 49 49 49 49 49 48 48 48 47 47 47 46 46 48 49 47 45 44 43 43 44 45
16 17 17 18 19 18 18 19 19 20 20 21 21 22 23 24 25 26 27 27 29 30 31 32 33 34 34 33 33 34 36 38 40 42 44 46 48 52 58 62 63 64 64 63 62 62 61 60 59 57 56 57 57 57 58 57 57 55 54 53 51 51 50 50 50 50 50 50 49 48 48 48 48 48 46 47 49 49 47 45 44 43 43 44 44
18 18 18 19 19 19 19 20 20 20 21 21 22 23 23 23 24 25 25 25 26 27 28 29 31 32 32 33 33 33 34 34 35 37 38 40 42 45 50 55 59 62 63 63 63 63 63 63 62 60 59 59 58 58 58 58 58 57 55 53 52 51 51 50 50 50 50 50 49 49 49 48 49 48 47 48 49 49 47 45 43 43 42 42 43
18 18 19 19 20 20 20 21 21 21 22 23 23 24 24 24 24 25 25 25 25 25 26 26 27 28 29 30 31 32 33 34 35 35 35 36 37 40 43 47 52 57 61 63 64 64 64 64 63 63 62 62 61 60 59 59 60 59 56 54 52 51 51 50 51 50 50 50 50 49 49 49 50 49 48 49 50 49 47 45 43 42 42 42 42
19 19 19 20 21 21 21 21 21 22 22 23 24 24 24 25 25 26 26 26 26 26 26 25 25 26 26 26 27 28 29 31 32 34 34 35 36 38 39 41 45 50 55 59 62 63 64 65 65 65 65 65 63 62 61 61 61 60 58 55 53 52 52 51 51 51 51 50 50 49 49 49 50 50 49 50 50 49 47 45 42 41 41 41 41
19 19 20 20 21 22 22 23 23 23 24 24 25 25 25 25 26 26 27 27 27 27 27 27 27 27 26 26 25 24 25 26 27 28 30 31 34 36 37 39 41 44 48 53 57 60 62 63 64 66 66 66 64 63 62 62 62 61 60 58 56 54 53 53 53 53 52 51 50 49 49 50 51 50 50 50 50 49 46 45 42 40 40 40 40
18 19 19 20 20 21 22 23 23 24 25 25 26 26 26 26 27 27 27 27 27 28 29 29 29 28 28 27 26 25 25 25 25 26 27 27 29 30 32 35 37 39 42 46 51 55 58 60 62 64 65 65 64 64 63 63 63 63 62 61 59 57 56 55 55 55 53 51 50 49 50 51 51 50 50 50 50 48 46 45 43 41 40 39 38
18 19 19 20 20 20 21 22 22 23 24 25 26 26 27 27 28 28 28 28 29 29 30 30 30 29 29 29 28 28 27 27 27 28 28 28 28 28 29 30 31 33 35 38 42 46 50 54 57 60 61 62 62 63 63 63 63 63 63 62 61 60 59 58 57 56 54 52 51 50 50 51 50 50 50 50 50 47 45 44 43 42 40 38 36
19 20 20 20 21 21 21 22 22 23 24 24 25 25 26 27 28 28 29 29 30 31 32 32 31 31 31 31 31 31 30 29 29 30 30 30 30 30 30 30 30 31 32 33 35 38 42 45 49 53 56 58 59 61 62 62 62 63 63 63 63 62 61 60 59 57 54 52 51 51 51 51 50 49 50 49 48 46 44 43 43 42 41 39 37
21 22 22 22 23 23 23 23 23 24 24 25 25 25 26 26 26 27 28 29 30 31 32 32 33 33 33 33 33 33 32 31 32 33 32 32 32 32 32 32 32 32 32 32 32 34 37 39 41 45 49 52 55 57 58 59 60 61 62 63 63 63 62 60 58 55 53 52 50 50 51 50 49 49 49 48 45 44 43 42 42 41 40 39 37
24 25 26 26 26 27 26 26 26 26 27 27 27 27 27 27 27 27 28 28 29 30 30 31 32 33 33 34 34 33 33 33 34 34 34 34 33 33 33 33 33 33 33 33 33 33 35 36 38 40 44 47 50 53 54 56 57 59 60 61 62 61 60 58 56 54 52 51 50 50 50 50 49 49 47 45 44 42 41 40 40 40 39 38 37
26 27 28 28 29 29 30 30 30 30 30 30 29 29 29 29 29 29 29 28 28 28 29 30 30 31 32 33 33 33 33 33 34 35 35 35 35 35 35 34 34 34 33 34 34 34 34 35 36 38 41 43 46 48 51 53 54 56 58 59 59 59 57 56 54 53 51 50 49 49 49 49 49 47 45 43 42 41 40 39 38 38 38 37 35
28 29 29 30 30 31 31 31 31 32 32 32 32 32 32 32 32 32 31 31 30 30 29 30 30 30 31 32 32 32 32 32 34 35 35 35 36 37 36 34 34 33 32 33 34 35 35 34 35 37 38 40 42 44 47 49 51 53 54 56 56 55 54 53 52 51 49 49 49 48 48 49 48 45 42 41 41 39 38 37 37 37 37 35 33
32 32 32 32 32 32 32 32 32 33 33 33 33 33 34 34 34 34 34 33 33 32 32 31 31 31 32 32 32 31 31 32 34 35 35 36 37 39 37 34 33 33 32 32 33 34 34 34 34 35 36 38 39 41 43 45 48 50 51 52 52 52 52 51 49 48 48 48 48 47 48 47 44 42 40 40 39 38 37 37 35 36 36 34 32
36 36 35 35 35 35 34 33 33 33 34 34 34 34 34 35 35 36 36 35 35 35 34 34 34 34 33 33 33 31 31 33 34 35 36 37 38 40 39 35 33 32 32 32 33 34 34 33 33 33 35 37 38 38 40 41 44 46 48 49 49 50 49 48 47 47 47 47 47 46 46 43 41 39 38 38 38 37 37 36 34 35 35 34 33
36 36 36 37 37 37 37 36 36 35 35 35 35 35 35 35 35 36 36 36 36 36 36 36 36 36 35 35 34 33 32 33 35 35 36 37 38 40 40 37 34 31 32 33 34 34 33 33 33 33 34 36 37 38 39 39 40 42 44 45 46 47 47 45 45 45 45 45 45 44 42 39 37 36 36 37 37 37 35 34 33 34 35 34 35
33 33 34 35 37 38 38 39 38 38 37 37 37 36 36 36 36 37 37 37 37 37 37 38 37 37 37 37 37 36 34 34 36 36 36 37 39 40 40 39 35 32 32 33 35 35 34 33 33 33 34 36 37 39 39 38 38 38 39 41 44 44 43 42 43 44 43 44 43 41 38 36 34 34 34 35 37 36 34 32 32 33 34 35 37
31 31 32 33 35 36 38 39 40 40 39 39 39 39 39 38 38 38 38 38 38 38 38 38 38 38 38 38 38 38 37 37 38 38 38 39 40 40 40 39 36 34 34 34 35 36 35 34 33 32 34 36 38 39 38 36 35 34 36 39 41 40 39 40 42 42 42 42 40 38 35 33 32 32 32 34 36 35 33 32 32 33 34 35 38
31 31 32 33 33 35 36 38 39 39 40 40 40 40 40 40 40 40 40 40 40 39 39 39 39 38 38 38 38 38 38 38 39 40 40 41 41 41 41 39 37 35 35 35 35 36 35 34 33 32 34 37 38 38 36 34 32 32 35 37 36 35 37 40 40 40 39 39 36 34 32 31 31 31 32 33 34 32 32 32 32 33 34 36 38
31 31 32 33 33 34 35 36 37 38 38 39 40 40 40 41 41 41 41 41 41 41 40 40 40 39 38 39 38 38 38 39 39 40 41 42 42 42 42 40 37 36 36 36 35 35 34 33 32 33 35 37 37 36 34 30 30 32 34 33 33 35 38 38 38 37 36 35 32 31 30 29 30 31 32 32 31 31 31 31 31 33 35 36 39
33 32 33 33 33 34 35 36 37 37 38 39 39 39 39 40 41 41 41 42 42 41 41 41 41 40 40 40 39 39 39 40 40 40 41 42 43 43 42 40 38 37 37 35 34 33 33 33 33 33 36 37 36 34 31 30 31 32 30 29 33 36 36 35 35 34 32 31 29 29 28 28 29 30 31 30 29 29 30 30 31 33 34 37 40
34 34 34 33 34 34 34 35 36 36 37 38 38 39 39 39 40 41 41 42 42 42 42 42 42 41 41 41 41 41 40 40 41 41 41 42 43 42 41 40 38 37 36 34 33 33 33 32 32 34 37 37 35 33 31 32 31 28 26 29 32 33 33 33 32 30 29 28 28 27 27 28 29 29 29 28 28 28 29 30 31 33 35 37 39
34 34 34 33 33 34 34 34 35 35 36 36 37 37 37 38 39 39 40 41 42 42 42 42 42 42 42 42 42 42 41 41 42 41 41 41 42 41 40 39 37 36 35 33 32 32 32 31 32 34 37 37 35 33 33 31 28 25 26 29 31 31 31 30 28 27 27 26 26 26 26 26 28 28 27 27 27 27 28 29 31 33 35 37 39
33 33 33 33 34 34 34 34 34 35 35 35 36 36 36 37 38 39 40 41 41 42 42 42 42 42 42 42 42 42 41 41 42 41 40 40 39 39 38 37 36 35 33 31 30 31 32 32 33 35 36 36 34 33 31 28 24 24 26 28 29 29 28 26 25 25 25 24 24 24 24 25 26 26 26 25 25 26 27 29 31 33 35 37 38
34 33 33 33 34 34 34 34 33 33 34 35 35 35 35 35 35 36 36 38 39 40 40 41 41 41 41 41 41 40 40 40 40 39 39 37 36 36 36 36 35 33 31 30 29 30 32 33 33 34 35 34 32 29 25 23 23 24 26 27 26 25 24 22 23 23 22 22 22 22 23 24 24 24 24 24 24 25 27 29 31 32 35 36 36
35 34 34 35 36 37 36 35 34 32 31 31 30 30 30 30 30 29 30 30 31 32 33 35 36 37 38 39 39 39 39 38 37 37 37 36 34 33 34 33 32 31 29 28 28 30 32 33 33 34 33 31 28 24 21 21 22 23 22 22 21 20 20 21 21 20 19 20 20 21 22 22 22 22 22 22 23 25 27 29 31 33 34 35 33
36 36 37 39 40 40 38 35 32 28 25 24 24 25 26 27 27 27 28 28 27 27 28 29 31 33 35 36 37 38 37 36 35 35 35 34 32 31 31 30 30 29 27 26 28 30 31 32 32 32 31 28 23 19 18 19 19 18 17 17 17 18 19 19 18 17 17 19 19 19 20 20 20 20 20 21 23 25 27 29 31 32 33 32 30
39 38 41 43 43 40 35 31 26 21 19 20 22 25 27 27 27 27 27 27 27 27 27 28 29 30 32 33 34 36 36 35 35 34 34 32 30 29 28 28 28 26 24 26 30 31 31 31 31 30 27 22 18 16 15 15 15 14 14 15 16 17 17 16 15 15 17 18 18 18 18 18 18 18 19 21 23 25 27 30 31 31 30 29 29
41 40 42 44 42 37 29 24 21 20 20 21 22 25 27 29 28 27 26 26 27 28 28 28 28 28 29 30 31 32 33 34 34 34 33 30 28 27 26 26 24 23 25 28 30 30 30 30 28 26 22 18 15 14 13 12 12 13 14 15 16 15 14 13 13 15 16 17 16 16 16 16 16 17 18 20 23 25 27 29 30 29 28 28 29
44 42 43 44 41 32 25 22 22 22 22 23 24 26 27 27 27 26 26 26 27 28 28 28 27 27 27 26 26 27 28 30 31 31 29 28 26 26 24 23 22 24 27 29 29 29 28 25 23 20 17 14 13 11 11 12 12 13 14 15 14 13 12 12 14 15 15 15 15 14 14 14 15 16 18 20 23 26 27 27 27 27 27 28 29
46 44 44 44 39 29 23 22 23 23 23 25 27 27 27 25 25 25 26 26 27 28 28 27 27 27 26 24 23 22 23 25 27 27 26 26 25 24 22 21 23 25 27 27 27 24 21 18 17 15 13 12 11 10 11 12 13 13 13 12 11 11 11 12 14 14 14 13 13 12 12 13 14 16 18 21 23 25 25 25 25 26 27 28 29
47 45 45 43 37 28 23 23 24 24 25 26 27 26 25 24 24 25 26 26 26 27 26 25 25 25 24 22 20 19 19 21 22 23 23 23 22 21 20 21 23 25 25 24 21 16 12 11 12 12 12 11 10 11 12 12 12 12 11 10 10 11 11 12 13 13 12 12 11 10 11 12 14 17 19 21 22 23 23 23 25 26 27 28 27
46 45 44 43 37 28 23 23 24 25 26 26 26 26 25 24 25 25 25 24 24 24 24 22 21 21 20 19 17 16 16 17 18 19 20 20 19 17 18 21 22 21 20 17 13 9 7 8 9 10 10 10 10 11 11 12 11 11 10 10 10 11 11 12 12 11 10 10 9 9 11 13 15 18 19 20 20 21 22 23 25 26 27 27 26
45 44 43 43 38 29 23 22 24 26 26 27 26 25 24 24 24 23 22 22 22 22 21 19 17 17 16 15 15 14 13 13 14 14 15 16 15 15 18 19 19 16 11 8 7 6 7 9 11 11 11 11 12 12 12 12 11 10 10 10 10 11 11 11 11 10 8 8 8 10 12 14 16 17 18 18 19 20 22 24 25 26 26 26 25
45 44 42 42 39 31 24 22 24 26 26 26 25 24 22 21 21 21 22 23 23 22 21 19 17 16 14 13 12 10 9 9 10 10 11 12 14 16 17 17 15 13 12 11 10 9 10 12 12 13 13 13 13 12 12 11 10 10 10 10 11 11 11 10 9 8 7 7 9 10 13 14 15 16 16 17 19 21 23 24 25 26 26 25 25
46 44 42 41 40 34 25 22 24 25 23 23 24 22 20 20 21 22 23 24 23 23 21 20 19 17 15 14 12 9 8 8 8 10 12 13 14 15 14 13 13 14 14 13 13 13 14 13 13 13 13 12 12 12 11 10 10 10 10 10 10 10 9 8 7 6 6 8 10 11 13 14 15 15 16 17 19 21 24 25 25 25 25 25 26
46 44 42 40 40 37 28 22 23 24 22 21 22 21 17 17 22 24 25 24 24 23 21 20 19 19 17 15 13 11 9 9 10 11 12 13 13 12 12 13 14 14 14 14 14 14 14 14 13 12 11 11 11 11 11 11 11 11 10 10 10 9 8 6 5 6 7 9 10 12 13 13 14 14 16 18 20 22 24 25 25 25 25 25 26
46 44 42 39 39 39 32 24 21 22 21 20 21 20 16 16 20 24 24 24 24 23 21 21 21 20 18 16 14 12 11 10 11 12 12 12 12 11 12 14 14 13 12 13 13 12 12 12 11 10 9 10 11 12 12 11 11 10 10 10 9 8 6 5 5 6 8 10 11 12 12 12 13 15 17 19 21 23 24 25 25 25 25 25 26
46 45 43 40 38 38 36 30 23 21 20 20 21 21 18 16 18 21 22 23 22 20 21 24 24 22 19 17 15 14 12 11 11 11 11 11 12 13 13 13 13 13 13 13 12 11 10 10 10 10 11 11 12 12 12 11 11 10 10 9 7 5 4 5 6 7 9 10 11 11 11 12 14 15 17 19 21 23 24 25 26 25 25 25 26
47 46 45 42 38 37 37 35 28 23 20 19 20 21 20 19 18 20 22 22 21 19 21 24 25 24 21 19 17 15 14 12 11 10 11 12 13 13 13 13 14 14 14 12 11 10 10 11 12 12 12 12 12 12 11 11 11 11 9 7 5 4 4 5 7 8 9 10 10 10 11 12 14 16 18 19 21 23 24 25 25 26 26 26 26
47 47 47 45 41 37 36 36 33 29 24 20 19 19 20 20 20 21 21 21 21 21 22 23 24 25 25 22 18 15 13 11 10 10 12 13 12 12 13 14 15 14 12 11 10 10 11 12 12 13 13 13 12 12 12 12 11 9 7 5 4 4 5 6 8 9 10 10 10 10 11 13 15 17 18 19 21 23 24 25 25 26 26 26 26
47 48 48 47 44 40 36 35 35 33 30 25 22 20 19 20 21 22 21 21 21 22 22 22 23 26 27 24 18 14 11 8 8 10 11 11 11 12 14 14 14 12 10 10 10 11 12 12 12 13 13 12 12 13 13 12 10 8 6 4 4 4 5 7 8 9 9 9 9 10 12 13 15 17 18 19 21 22 24 25 25 26 26 26 26
47 48 48 48 47 43 39 36 35 34 33 31 27 23 22 22 22 22 21 21 20 20 22 22 23 26 28 24 17 12 8 6 6 7 9 9 10 12 14 14 12 11 10 11 12 12 13 13 13 13 13 13 13 13 12 10 8 6 5 3 4 5 6 8 9 9 9 9 9 11 12 14 16 17 18 19 21 22 23 24 25 26 26 26 26
46 47 48 48 48 46 43 39 36 34 34 33 31 29 26 23 22 21 20 20 19 19 21 22 23 25 25 21 14 9 6 4 5 5 6 8 10 13 13 12 11 10 11 12 12 13 13 13 13 13 13 14 14 12 10 9 7 5 3 3 4 6 7 8 9 9 9 9 9 11 13 15 16 17 18 19 20 21 23 24 24 25 26 26 26
46 47 47 48 48 48 46 42 39 36 34 33 33 33 31 28 24 22 21 20 19 19 20 21 22 24 22 17 11 7 4 4 6 5 6 8 11 12 12 10 10 11 11 11 12 12 12 13 13 14 14 14 13 11 9 7 5 3 3 4 5 6 7 9 9 9 9 9 10 12 13 15 17 18 18 19 20 21 22 23 24 25 26 26 27
46 46 47 47 48 48 48 46 42 39 36 34 34 34 33 32 29 24 21 19 18 18 19 20 22 22 18 12 7 4 3 5 6 6 7 10 12 11 10 9 10 10 11 11 12 13 13 13 14 15 14 13 11 10 8 6 4 3 4 4 5 7 8 9 9 9 9 9 11 12 14 16 17 18 19 20 21 21 22 23 24 25 26 27 27
45 46 47 47 47 47 47 47 46 43 39 36 35 35 35 35 33 29 23 19 17 17 19 20 20 19 14 8 4 2 3 5 6 7 9 11 12 10 9 8 9 10 11 12 13 13 14 14 15 14 13 12 10 9 6 4 3 3 4 5 6 7 8 9 9 9 9 10 11 13 15 16 17 18 19 20 21 21 22 23 24 25 26 27 28
45 46 47 47 47 47 47 47 47 45 42 39 37 35 36 36 36 33 27 20 17 17 18 19 18 16 10 5 3 2 4 6 7 9 10 11 10 9 8 8 9 10 11 13 13 13 14 14 15 14 13 11 10 8 5 4 3 4 5 5 6 8 9 9 9 9 9 10 12 13 15 16 17 18 19 20 21 22 22 23 24 25 26 27 28
44 45 46 47 47 47 47 47 46 46 44 42 39 36 35 36 36 35 31 24 18 16 16 17 16 12 6 3 3 3 5 6 8 9 10 10 10 9 9 9 10 10 11 12 13 13 14 15 15 14 12 11 9 7 5 4 4 4 5 6 7 8 9 9 9 9 10 11 12 14 15 16 17 18 19 20 21 22 22 23 24 25 25 26 27
43 44 45 45 46 46 47 46 46 45 44 43 41 37 35 35 35 36 33 28 21 16 14 14 12 8 4 4 4 4 5 6 8 9 10 10 10 10 10 10 10 10 11 12 13 14 15 16 15 13 12 10 8 6 5 4 4 5 5 6 7 8 9 9 9 9 10 11 13 14 15 16 17 18 19 20 21 22 22 23 24 25 25 26 27
Wind_Direction
309 301 292 283 279 277 274 273 272 271 271 270 270 270 270 269 269 268 268 269 269 269 270 269 268 266 264 263 263 263 263 263 263 261 260 258 257 256 257 257 259 260 261 262 262 263 264 264 264 265 264 264 264 264 264 264 264 264 264 264 264 264 264 264 265 266 266 267 268 269 269 270 271 272 275 281 285 287 290 292 293 291 288 286 285
307 305 301 293 286 283 280 279 277 276 276 275 275 275 273 273 273 272 273 273 272 272 272 271 270 270 269 267 266 265 264 264 264 263 263 261 258 257 257 258 259 260 261 263 263 264 265 265 265 265 265 265 265 265 264 263 262 262 262 262 262 262 262 262 263 263 264 265 266 267 267 268 270 271 275 281 284 286 288 291 292 291 289 286 286
299 298 298 295 287 280 279 281 281 282 281 281 281 281 280 280 280 279 278 277 276 275 275 273 272 272 272 272 271 270 269 267 266 265 265 264 262 259 257 257 258 259 260 261 262 263 265 265 265 265 265 265 265 265 264 262 262 261 261 261 261 261 261 261 261 262 263 264 264 265 266 267 269 271 276 281 283 285 287 289 291 291 289 287 286
301 297 298 299 293 284 282 282 281 282 282 284 285 285 286 287 286 286 286 284 283 282 280 278 277 276 275 274 273 272 271 270 269 268 267 266 265 262 258 257 257 259 260 260 260 261 263 265 265 264 264 265 265 264 263 263 262 260 259 258 259 259 260 260 261 261 261 262 263 264 265 267 268 272 277 280 282 284 286 288 291 291 289 287 287
309 304 302 302 300 296 292 289 288 287 287 287 287 288 288 289 289 290 291 291 291 290 289 287 284 283 281 278 275 272 271 271 270 270 269 268 267 265 262 259 257 258 260 261 261 261 262 263 264 264 264 265 265 265 264 263 261 259 257 256 256 257 258 259 259 259 260 260 262 263 265 266 269 273 277 279 280 283 284 287 290 291 290 289 288
310 307 304 301 299 299 298 296 294 292 291 290 289 289 289 289 289 290 291 292 293 293 293 292 291 290 288 285 282 279 276 275 273 273 272 270 269 268 266 263 260 258 259 261 263 263 263 264 263 263 264 265 265 265 264 262 260 258 256 254 254 255 256 257 257 257 258 259 261 262 264 266 270 273 276 278 279 282 284 287 290 291 291 289 288
305 303 300 298 297 297 297 296 294 291 289 288 288 288 288 288 288 289 289 290 290 290 290 291 292 293 293 291 289 288 285 284 283 282 280 277 274 271 270 268 265 261 259 260 262 263 264 265 264 264 265 265 265 265 263 262 260 258 256 254 252 252 253 254 255 256 257 258 259 261 264 267 270 273 276 277 279 282 284 287 289 291 291 289 289
305 303 301 300 299 299 297 295 292 290 288 287 286 285 284 284 284 284 286 286 286 286 286 287 289 290 291 291 290 290 290 290 291 290 288 286 283 281 278 275 272 269 265 262 261 261 263 264 265 266 267 267 266 265 264 263 262 260 258 255 253 252 252 253 254 255 256 257 259 261 264 267 270 273 275 277 280 283 285 287 289 290 290 289 289
308 307 306 305 304 303 300 297 295 293 291 289 288 286 285 283 282 281 281 280 280 280 280 282 284 285 287 288 288 288 289 291 291 289 288 287 287 286 284 283 281 279 276 271 268 265 264 264 264 266 267 268 267 267 266 265 264 262 260 257 255 253 252 252 253 253 255 257 259 262 264 267 270 272 275 277 281 284 286 288 290 291 291 289 289
308 307 307 306 304 302 300 299 298 297 295 293 291 290 288 286 285 283 281 279 278 277 277 278 279 280 281 282 283 285 286 289 288 286 285 285 285 285 284 284 284 282 281 280 278 275 271 269 267 267 267 267 267 267 267 266 265 263 261 259 257 255 254 253 253 253 255 258 260 262 265 267 269 271 274 277 281 284 286 288 290 291 292 291 290
305 304 304 303 302 301 299 298 297 296 295 294 293 292 291 290 288 286 284 283 281 280 279 279 278 278 278 278 279 280 282 283 283 282 283 283 283 284 283 283 283 282 283 283 283 281 279 278 276 273 270 269 268 268 268 267 265 264 262 261 259 257 256 255 255 255 257 259 261 263 265 267 268 271 274 278 282 284 286 288 290 291 292 292 293
302 301 301 301 299 299 298 297 296 294 293 293 292 292 292 291 290 289 287 286 285 284 283 281 279 278 277 277 277 278 278 279 278 279 280 281 282 282 282 282 282 283 284 284 284 284 283 284 283 280 276 274 272 271 270 268 266 265 263 262 260 259 257 256 256 256 257 259 261 263 265 267 268 271 276 279 282 283 285 288 290 291 291 292 294
299 298 298 297 297 296 296 295 295 293 292 292 291 291 291 290 289 288 288 287 286 286 285 283 282 281 279 278 277 277 277 277 277 278 278 279 279 279 280 281 281 283 284 286 286 286 286 285 285 284 283 280 277 275 273 270 268 266 265 263 261 260 258 257 257 257 257 259 261 262 264 266 269 273 277 280 282 283 286 289 290 290 291 293 295
299 298 297 295 294 294 294 293 293 292 291 291 290 290 289 288 288 288 287 287 286 286 285 284 284 282 281 280 279 278 278 278 277 277 277 277 277 277 277 278 280 282 283 284 285 286 286 286 286 288 288 286 283 280 277 274 271 269 267 265 262 260 258 258 257 257 258 259 260 261 263 266 270 275 278 280 282 284 287 289 289 290 291 293 295
300 299 298 296 295 294 293 292 292 291 291 290 290 289 288 288 288 287 287 287 287 286 286 285 284 283 282 282 281 281 280 278 277 277 277 277 277 277 277 278 279 281 281 281 283 284 285 287 288 289 291 291 288 284 280 276 273 270 267 264 261 260 258 257 256 257 257 257 258 260 263 267 272 276 279 280 282 285 287 288 289 290 291 293 296
298 297 296 295 294 293 292 291 290 290 289 289 288 288 287 287 287 287 287 287 287 286 286 284 284 283 283 283 283 283 281 279 278 278 278 279 279 280 280 281 280 281 282 282 283 284 286 288 289 289 290 290 289 285 281 277 273 270 267 264 262 259 257 255 256 256 256 256 258 260 264 269 273 276 278 280 282 285 286 288 290 291 292 294 295
296 294 293 292 291 291 290 289 289 288 288 288 287 286 286 286 286 286 286 286 286 286 285 284 284 283 283 283 283 282 282 281 280 280 279 279 279 280 281 282 281 281 282 283 284 284 287 288 289 289 289 289 288 285 281 277 273 270 268 265 262 258 256 256 256 255 254 255 258 261 265 270 273 275 277 280 282 284 286 288 290 290 292 294 296
298 296 294 292 290 289 288 288 288 288 288 287 287 286 286 286 286 285 285 285 285 284 284 284 284 284 283 283 282 282 282 281 281 281 280 279 279 279 280 281 281 281 280 281 282 284 286 287 288 288 289 288 286 284 281 278 273 270 268 264 261 258 257 256 255 253 253 255 258 262 266 269 271 274 277 280 282 284 286 288 289 290 293 297 300
306 302 299 295 292 290 289 288 287 287 287 287 287 287 287 287 287 286 286 285 285 284 284 284 284 283 283 283 283 282 281 280 280 280 280 279 279 279 279 280 281 281 279 278 280 282 284 286 287 287 287 287 285 283 281 277 273 269 265 261 260 259 257 254 252 251 252 256 259 263 266 269 270 273 276 278 281 284 287 289 291 292 296 300 302
312 309 305 302 298 295 292 290 289 288 287 286 286 286 286 287 286 286 286 286 285 285 284 283 283 282 282 282 282 282 281 279 278 278 277 278 278 279 280 281 281 281 279 279 280 282 285 287 288 287 286 285 285 283 279 275 270 264 260 258 258 256 252 249 249 250 252 255 260 263 265 267 269 272 274 277 280 283 286 289 292 294 298 301 304
317 314 310 307 303 300 298 295 293 291 289 288 287 286 286 286 285 285 285 285 285 284 284 283 282 281 281 281 280 280 279 278 276 276 275 276 276 278 279 281 281 280 279 280 282 284 286 287 287 286 285 285 285 282 277 271 263 258 256 256 254 250 247 246 247 249 252 256 259 262 263 265 268 271 274 277 279 282 285 288 291 295 299 303 304
321 317 313 310 306 303 301 298 296 294 292 290 289 288 287 286 285 284 284 283 283 283 282 282 281 280 279 278 278 278 277 276 275 274 274 274 274 275 277 279 280 280 280 281 283 284 286 287 287 286 286 285 284 280 274 264 257 254 253 251 249 247 246 246 247 249 252 256 258 259 262 264 267 271 274 276 279 281 285 288 292 296 300 302 304
322 319 315 312 308 305 303 300 298 296 294 292 290 290 288 287 286 285 284 283 282 281 281 280 279 278 277 276 276 276 275 275 275 274 273 273 273 273 274 276 278 279 280 281 281 282 285 288 288 287 287 286 283 278 270 261 254 250 247 245 245 246 245 245 246 248 251 254 256 258 261 264 268 271 273 275 278 281 285 289 293 296 299 302 306
325 322 318 315 313 309 306 303 300 297 295 293 291 291 289 288 287 286 284 283 282 281 280 279 278 276 275 274 274 274 274 274 274 274 275 274 274 273 273 274 276 278 279 279 279 282 286 288 287 288 288 287 284 278 269 260 252 244 240 241 242 243 244 245 246 249 250 252 254 257 261 265 268 271 272 274 277 281 285 289 294 297 300 304 309
330 327 323 321 318 314 311 308 304 300 297 295 293 292 290 288 286 284 283 281 280 280 279 277 276 275 274 273 272 272 272 272 273 274 276 276 276 275 274 274 276 278 278 279 280 283 287 287 286 288 288 287 284 278 270 261 250 239 236 238 240 242 245 246 247 248 249 251 255 258 262 265 267 269 270 273 277 282 286 290 294 298 302 307 310
334 330 328 326 323 320 316 312 307 303 300 298 297 295 292 290 288 287 285 283 281 280 278 277 276 275 274 273 272 271 271 272 272 274 275 277 277 276 274 273 275 277 279 280 282 284 286 286 286 288 287 285 281 275 266 255 244 237 237 240 242 244 246 246 246 247 249 252 256 259 262 264 265 267 270 274 279 283 287 291 295 300 305 307 308
336 334 333 331 328 325 321 316 311 307 304 302 302 302 302 302 303 301 298 295 292 289 286 283 280 277 274 271 270 269 270 271 272 273 275 276 277 275 274 274 275 277 279 279 280 283 285 286 287 288 286 282 276 269 257 245 239 238 241 244 246 245 244 243 244 246 249 253 257 259 261 261 263 266 271 276 281 285 289 294 299 303 306 307 307
340 338 337 335 332 329 324 320 316 313 310 310 313 315 315 314 313 311 307 303 301 299 296 292 287 282 277 273 269 267 267 267 268 270 273 274 274 274 274 274 275 276 277 278 281 284 286 286 288 286 281 276 270 260 248 242 240 241 242 243 242 240 239 240 243 247 250 254 256 256 257 259 263 268 273 278 283 287 293 299 303 305 306 307 307
344 341 340 337 335 332 328 325 323 322 323 324 324 323 321 318 314 311 307 304 302 300 299 297 293 287 282 278 272 267 264 263 263 265 267 269 270 271 272 274 274 276 277 280 283 285 285 285 285 281 275 267 255 242 237 238 239 238 235 234 234 234 235 238 242 247 250 252 252 253 255 259 264 270 276 281 286 293 298 302 303 305 306 308 309
347 343 342 341 339 337 336 335 333 332 331 331 328 326 326 324 321 317 312 308 304 300 297 297 296 294 289 284 278 270 265 263 262 263 265 265 265 268 271 273 274 275 278 282 284 284 284 284 282 277 268 253 235 228 230 232 232 228 226 228 229 231 233 237 241 244 246 247 248 251 254 260 266 272 278 286 293 298 301 302 304 306 308 309 311
349 346 345 345 343 341 343 343 339 335 333 332 330 329 329 329 327 324 319 314 310 305 299 296 297 297 295 290 285 276 269 264 263 265 265 263 262 265 268 269 270 274 279 282 283 283 282 282 278 271 256 235 220 219 222 222 222 221 222 224 226 228 230 232 236 239 242 244 247 250 255 261 269 277 286 293 298 300 301 303 306 308 310 313 315
350 348 348 348 346 344 346 344 340 336 334 333 332 331 331 331 330 327 323 319 315 310 305 299 297 299 298 295 290 283 275 269 268 267 264 262 262 264 265 266 271 277 281 282 282 281 281 278 271 256 234 215 211 214 215 216 217 217 219 220 221 223 225 228 233 237 239 242 245 249 256 266 277 287 294 298 299 301 303 306 308 311 313 316 317
351 349 350 350 349 346 347 346 341 337 336 334 334 335 336 335 334 329 324 321 318 315 311 305 299 299 299 296 292 287 281 276 273 268 264 263 262 262 265 270 276 280 281 280 277 272 269 266 254 231 210 204 208 209 209 210 211 212 214 214 214 217 221 226 231 234 235 238 242 251 264 278 289 295 297 299 300 303 306 309 311 314 316 317 318
351 350 351 352 350 347 346 347 342 338 337 337 338 340 340 338 334 331 328 327 327 324 320 315 308 302 300 296 291 288 284 279 275 269 265 262 260 262 270 277 280 280 279 274 263 244 232 231 218 202 195 199 201 200 201 204 205 206 206 207 209 214 219 224 227 228 230 236 247 264 279 290 295 297 299 301 303 306 310 313 315 317 317 317 318
353 351 352 354 352 347 342 343 342 339 339 341 343 345 344 339 339 343 346 347 346 341 336 333 327 319 311 302 294 289 286 282 277 269 262 258 261 270 277 278 276 269 254 233 212 197 190 185 183 184 187 188 189 191 195 197 199 199 200 205 210 214 217 219 221 222 230 245 264 281 291 295 296 299 302 304 307 311 314 316 317 317 317 318 319
355 354 354 355 354 349 341 339 341 341 341 345 348 350 349 349 352 358 360 360 359 356 353 351 349 343 333 322 312 302 294 287 276 266 262 263 268 273 274 270 260 239 210 186 171 168 172 175 179 182 184 184 186 189 191 192 193 195 200 206 209 210 210 212 215 224 242 265 282 291 295 297 299 303 306 309 313 316 318 318 318 318 318 319 320
358 357 356 356 357 353 345 340 344 345 345 348 352 353 356 1 5 4 2 2 1 358 357 358 358 355 350 345 339 329 315 300 282 270 269 270 270 270 267 256 239 218 197 177 167 168 173 177 180 182 184 186 186 185 185 188 191 196 201 204 203 202 203 207 219 241 265 282 292 295 297 300 303 307 311 315 318 319 318 318 319 320 319 319 320
1 359 358 358 358 356 350 342 345 350 348 348 352 354 357 4 6 3 1 1 360 356 355 356 355 353 350 347 342 335 324 309 293 283 278 274 272 267 253 233 219 206 190 176 171 172 176 178 179 181 183 182 180 180 183 188 192 196 197 196 195 196 202 215 239 267 283 292 296 298 300 303 308 312 317 319 319 319 319 320 321 321 320 319 319
3 2 1 359 359 359 355 346 344 349 349 345 347 352 354 356 357 355 355 357 358 357 356 354 352 349 344 340 335 330 321 309 298 292 286 275 263 247 228 213 203 193 182 173 169 170 172 174 174 173 171 171 173 178 183 187 190 192 190 190 192 198 211 237 265 285 293 297 298 300 302 308 313 318 320 320 320 320 321 323 323 322 320 319 319
5 5 4 2 360 360 359 352 345 345 346 344 344 347 347 347 349 350 351 351 354 356 353 349 349 349 343 334 328 322 313 305 299 292 279 259 238 221 210 200 188 177 169 164 163 166 169 168 166 165 165 168 173 178 182 185 186 186 186 188 194 209 234 264 285 294 298 299 299 302 307 313 318 320 320 320 321 322 324 325 324 322 321 320 320
6 7 6 5 2 1 0 358 352 344 339 340 343 345 344 341 342 345 345 343 345 349 345 339 341 343 338 327 320 314 306 301 295 279 257 238 222 209 198 187 176 167 162 161 165 169 171 169 167 167 167 170 173 176 180 182 182 183 185 190 205 232 261 284 295 298 299 300 301 306 313 317 319 320 320 320 322 324 326 326 325 324 323 322 322
7 8 8 7 6 3 1 0 358 352 342 335 333 335 337 336 333 333 334 334 336 338 335 331 333 338 335 325 314 306 301 297 283 259 240 227 215 199 185 175 168 162 160 163 168 171 172 172 171 170 169 170 173 176 179 179 179 180 186 201 225 258 281 293 299 300 300 302 305 310 316 319 319 320 320 321 323 326 327 328 328 326 325 325 324
8 9 9 8 8 6 3 1 0 358 353 345 333 325 323 324 324 324 327 330 333 332 329 329 332 337 337 329 316 303 299 293 268 244 233 223 205 187 174 166 161 159 162 167 169 168 168 169 169 169 170 171 173 176 176 175 176 182 197 219 250 279 291 298 302 303 302 303 307 313 317 320 320 320 320 321 324 327 329 330 331 330 329 328 327
7 8 9 9 9 8 5 3 1 360 359 356 348 337 325 317 317 321 324 327 328 329 328 328 331 335 338 334 321 305 297 281 247 231 229 220 197 177 166 160 159 163 168 169 168 166 166 166 166 168 172 174 174 173 172 173 181 194 211 242 275 289 296 303 306 305 303 304 309 315 319 320 320 319 320 321 323 327 330 332 333 333 333 332 331
6 7 8 9 9 8 7 5 2 0 359 359 357 353 343 328 319 316 318 320 323 324 323 325 329 334 338 336 324 305 287 252 210 204 216 208 186 169 162 161 165 169 169 167 165 164 164 165 167 171 174 172 170 170 172 178 190 205 229 268 286 295 304 309 310 306 303 306 312 317 320 320 319 319 319 321 323 327 330 333 335 336 336 336 335
4 5 6 7 8 8 7 6 4 1 0 359 358 358 354 346 333 319 312 315 320 319 316 321 329 335 336 334 324 304 269 211 181 179 193 188 174 165 162 165 169 169 166 164 164 163 165 169 172 172 170 169 169 172 179 185 196 220 256 281 294 304 311 312 310 307 306 309 314 318 320 320 319 319 319 320 323 327 330 333 336 338 339 339 339
1 2 3 5 6 7 7 7 5 3 1 360 358 358 357 355 348 334 318 312 315 315 313 318 328 334 334 330 318 296 234 186 170 169 174 172 168 166 167 168 169 168 167 167 167 167 170 172 172 169 168 170 174 179 184 192 212 245 272 291 303 310 313 313 312 309 308 310 314 317 319 320 320 320 320 321 323 326 329 332 335 337 339 341 342
359 360 0 2 3 4 5 6 6 4 3 1 359 358 357 357 355 348 333 317 308 306 307 313 324 332 332 324 305 265 193 174 168 167 168 168 169 172 175 174 174 175 174 173 173 172 172 172 170 170 173 176 179 183 189 203 233 263 287 302 308 313 316 316 313 309 308 311 314 316 318 320 321 320 321 322 323 326 328 331 334 336 339 341 343
355 356 357 358 360 1 2 4 4 4 3 2 0 359 357 356 356 354 347 331 312 302 301 308 320 328 326 305 272 211 177 172 170 169 170 170 173 178 182 184 184 182 179 177 176 175 173 173 173 175 178 180 183 189 199 219 249 276 296 306 312 317 318 315 312 310 309 311 314 316 318 320 321 321 322 323 324 326 328 331 333 336 337 340 342
352 353 354 355 356 357 359 0 1 2 2 2 1 359 357 356 356 355 353 345 330 313 304 306 315 321 311 265 227 191 178 175 172 171 172 174 179 186 191 192 191 186 182 181 179 178 177 178 179 180 183 185 189 196 211 234 261 285 303 311 315 318 318 314 311 309 309 311 315 317 319 320 321 322 323 324 325 327 329 331 334 336 338 339 342
349 349 350 351 352 353 354 356 358 359 360 360 360 359 358 356 356 356 355 351 342 329 315 309 309 308 275 223 203 183 175 174 173 173 175 180 187 194 198 199 198 193 188 186 185 184 183 183 184 185 188 191 195 205 224 247 269 292 308 313 315 318 317 312 308 307 309 312 315 317 319 320 321 323 324 326 326 328 330 333 335 337 339 340 341